Back to catalog

STARLINK-34459

AliveCommunicationsVLEO
NORAD 64449·PAYLOAD·🇺🇸 United States

Launched Jun 18, 2025 from Cape Canaveral Space Force Station

Loading…

Next Passes (next 24 hours)

TLE

FreshSource: CelesTrak SupGP

Epoch: Sep 15, 2026, 03:41 UTC

1 64449C 25130M   26258.15395833 -.00012573  00000+0 -37137-3 0  2589
2 64449  53.1570 284.9252 0001342  85.5167 188.4213 15.34404439    19

Track STARLINK-34459 in real time with AllMySat

Download on the App Store